This is the latest recevied weather packets stored in our database for station/object WE0DX-1. If no packets are shown the sender has not sent any weather packets the latest 10 day(s).
| Time | Temp. | Humidity | Pressure | Rain* | Wind** | Luminosity | Snow |
|---|---|---|---|---|---|---|---|
| 1777985518 | 8.33° C | 88% | 1010.2 hPa | 0 mm | - | 2 W/m² | - |
| 1777985214 | 8.33° C | 88% | 1010.1 hPa | 0 mm | - | 4 W/m² | - |
| 1777984911 | 8.33° C | 88% | 1009.9 hPa | 1.78 mm | - | 6 W/m² | - |
| 1777984607 | 8.33° C | 86% | 1010 hPa | 1.78 mm | - | 7 W/m² | - |
| 1777984304 | 8.33° C | 85% | 1009.9 hPa | 3.05 mm | - | 10 W/m² | - |
| 1777984000 | 8.89° C | 82% | 1009.5 hPa | 3.05 mm | - | 9 W/m² | - |
| 1777983698 | 8.89° C | 79% | 1009.4 hPa | 3.05 mm | - | 10 W/m² | - |
| 1777983388 | 9.44° C | 76% | 1008.9 hPa | 3.05 mm | - | 4 W/m² | - |
| 1777983085 | 10° C | 70% | 1008.8 hPa | 3.05 mm | - | 3 W/m² | - |
| 1777982781 | 10.56° C | 66% | 1009.2 hPa | 1.78 mm | - | 2 W/m² | - |
| 1777982477 | 11.11° C | 62% | 1009.6 hPa | 0 mm | - | 0 W/m² | - |
| 1777982172 | 11.11° C | 56% | 1009.6 hPa | 0 mm | - | 0 W/m² | - |
| 1777981870 | 11.67° C | 54% | 1008.9 hPa | 0 mm | - | 0 W/m² | - |
| 1777981566 | 11.67° C | 54% | 1009.3 hPa | 0 mm | - | 0 W/m² | - |
| 1777981263 | 11.67° C | 54% | 1008.9 hPa | 0 mm | - | 0 W/m² | - |
| 1777980959 | 11.67° C | 55% | 1008.9 hPa | 0 mm | - | 0 W/m² | - |
| 1777980655 | 11.67° C | 54% | 1009.3 hPa | 0 mm | - | 0 W/m² | - |
| 1777980352 | 11.67° C | 53% | 1009 hPa | 0 mm | - | 0 W/m² | - |
| 1777980050 | 11.67° C | 54% | 1009.2 hPa | 0 mm | - | 0 W/m² | - |
| 1777979744 | 11.67° C | 54% | 1008.8 hPa | 0 mm | - | 0 W/m² | - |
| 1777979441 | 11.67° C | 54% | 1008.9 hPa | 0 mm | - | 0 W/m² | - |
| 1777979137 | 11.67° C | 54% | 1008.9 hPa | 0 mm | - | 0 W/m² | - |
| 1777978834 | 11.67° C | 54% | 1008.6 hPa | 0 mm | - | 0 W/m² | - |
| 1777978531 | 11.67° C | 56% | 1008.7 hPa | 0 mm | - | 0 W/m² | - |
| 1777978227 | 11.67° C | 57% | 1008.1 hPa | 0 mm | - | 0 W/m² | - |
* Rain latest hour (hover to see other rain measurements)
** Current wind speed in m/s (hover to see current wind gust speed)